Showing default

QB50P2, 40032

Orbit data source: Space-Track

QB50P2, 40032 is a payload satellite owned by QB50 (BE) in SSO that was launched on Thu, 19 Jun 2014 UTC via a DNEPR launch vehicle from the Orenburg, Russia (OREN). Payload-class satellites include a variety of spacecraft equipped with specific instruments for various scientific and technological missions. These include communications satellites like Starlink; space stations such as the ISS; scientific satellites like the Hubble; Earth observation satellites from companies like Planet Labs, Umbra, and HawkEye 360; GPS; miniature CubeSats for education and research; and military/defense satellites.

Loading next visibility...
Identifier
40032, 2014-033Y
Orbit
SSO
Country
Flag of BEBE / BEL
Related business
Manufacturer
ISIS BV
Mission
Operational Civil Science
Bus & Motor
CUBESAT 2U, Unknown motor
Mass
~2 kg wet, ~2 kg dry
Launch date (UTC)
2014-06-19 (12 years ago)
Launch vehicle
DNEPR
Launch site
Orenburg, Russia (OREN)
Object type
Payload
Rocket body
Debris
Shape & HBR
Box, 0.1 m
Radar Cross Section
0.040 m², Medium (>0.1 m² and < 1m²)

Expand to show TLE details & history
Last TLE update: 3 days ago

TLE from 3 days ago
0 QB50P2
1 40032U 14033Y   26170.93984048  .00006262  00000-0  33724-3 0  9999
2 40032  98.0755 167.9914 0008246 155.0319 205.1312 15.15188064653081
Epoch: 2026-06-19T22:33Z
TLE epoch observation values (Epoch: 2026-06-19T22:33:22.217Z)
Latitude
-0.00002°
Longitude
-78.51278°
Altitude
528.624 km
Speed
7.596 km/s
True Right ascension
11h 11m 57s
True Declination
0° 00' 00"
Sunlit
Object was in daylight at epoch
Visualization orbit readout
Latitude
Unknown
Longitude
Unknown
Altitude
Unknown
Speed
Unknown
Apparent Right ascension
Unknown
Apparent Declination
Unknown
Sunlit
N/A
Visualization observer readout
Local Sidereal Time
21:40:53
Azimuth
Unknown
Elevation
Unknown
Doppler factor
Unknown
Orbital elements
Apogee altitude
523.096 km
Perigee altitude
511.724 km
Semi-major axis
6,895.547 km
Eccentricity
0.00082
Inclination
98.0755°
RAAN
167.9914°
Arg. of periapsis
155.0319°
True anomaly
205.09111°
Mean anomaly
205.1312°
Eccentric anomaly
205.11115°
Mean motion
3.79044 °/min
Orbital period
94.98 mins
BSTAR
0.00033724
Loading maneuver chart data...
Computing Atmospheric mass density...
Loading historical data...
Loading historical data...
Loading historical data...
Loading historical data...
Loading historical data...
Loading historical data...
Loading historical data...

Documentation

Showing up to 5 results
|